When you browse on this site, cookies collect data to enhance your experience and personalize the content and advertising you see.
Visit our Privacy Policy to learn more. By continuing to use the site, you agree to this use of cookies and data.
  • Em Portugal
  • Lista de países
  • Para 7 dias
  • Temperatura da água
  • Mapas de satélite
  • Mapa do tempo
  • Widgets de tempo
  • user-avatar
    Iniciar Sessão

    Previsão horária em Adelaide

    Hoje, 20 Março, Quarta-feira

    Tempo Temperatura Precipitação Vento Pressão Humidade
    00:00 +22°C° 0 mm 1 m/s 756 mmHg 62%
    01:00 +22°C° 0 mm 1 m/s 756 mmHg 63%
    02:00 +22°C° 0 mm 1 m/s 756 mmHg 64%
    03:00 +21°C° 0 mm 1 m/s 756 mmHg 66%
    04:00 +19°C° 0 mm 0 m/s 756 mmHg 66%
    05:00 +19°C° 0 mm 0 m/s 757 mmHg 67%
    06:00 +19°C° 0 mm 0 m/s 757 mmHg 67%
    07:00 +21°C° 0 mm 0 m/s 757 mmHg 60%
    08:00 +26°C° 0 mm 1 m/s 757 mmHg 52%
    09:00 +28°C° 0 mm 1 m/s 757 mmHg 44%
    10:00 +29°C° 0 mm 1 m/s 757 mmHg 41%
    11:00 +31°C° 0 mm 2 m/s 757 mmHg 39%
    12:00 +32°C° 0 mm 2 m/s 757 mmHg 36%
    13:00 +33°C° 0 mm 3 m/s 756 mmHg 37%
    14:00 +31°C° 0 mm 3 m/s 756 mmHg 39%
    15:00 +32°C° 0 mm 4 m/s 756 mmHg 41%
    16:00 +29°C° 0 mm 4 m/s 756 mmHg 49%
    17:00 +27°C° 0 mm 4 m/s 756 mmHg 56%
    18:00 +25°C° 0 mm 4 m/s 756 mmHg 63%
    19:00 +23°C° 0 mm 4 m/s 757 mmHg 68%
    20:00 +22°C° 0 mm 4 m/s 757 mmHg 73%
    21:00 +21°C° 0 mm 4 m/s 757 mmHg 78%
    22:00 +20°C° 0 mm 4 m/s 757 mmHg 79%
    23:00 +20°C° 0 mm 4 m/s 757 mmHg 80%

    Amanhã, 21 Março, Quinta-feira

    Tempo Temperatura Precipitação Vento Pressão Humidade
    00:00 +20°C° 0 mm 3 m/s 757 mmHg 81%
    01:00 +20°C° 0 mm 3 m/s 757 mmHg 83%
    02:00 +20°C° 0 mm 3 m/s 757 mmHg 84%
    03:00 +19°C° 0 mm 3 m/s 757 mmHg 85%
    04:00 +19°C° 0 mm 3 m/s 757 mmHg 86%
    05:00 +19°C° 0 mm 3 m/s 757 mmHg 86%
    06:00 +19°C° 0 mm 3 m/s 757 mmHg 87%
    07:00 +21°C° 0 mm 3 m/s 758 mmHg 79%
    08:00 +22°C° 0 mm 4 m/s 758 mmHg 71%
    09:00 +25°C° 0 mm 4 m/s 758 mmHg 63%
    10:00 +27°C° 0 mm 4 m/s 758 mmHg 57%
    11:00 +28°C° 0 mm 4 m/s 758 mmHg 52%
    12:00 +29°C° 0 mm 4 m/s 757 mmHg 46%
    13:00 +29°C° 0 mm 4 m/s 757 mmHg 47%
    14:00 +29°C° 0 mm 5 m/s 756 mmHg 48%
    15:00 +29°C° 0 mm 5 m/s 756 mmHg 49%
    16:00 +27°C° 0 mm 5 m/s 756 mmHg 57%
    17:00 +25°C° 0 mm 5 m/s 756 mmHg 64%
    18:00 +23°C° 0 mm 5 m/s 756 mmHg 71%
    19:00 +22°C° 0 mm 5 m/s 756 mmHg 73%
    20:00 +22°C° 0 mm 5 m/s 757 mmHg 76%
    21:00 +22°C° 0 mm 5 m/s 757 mmHg 78%
    22:00 +22°C° 0 mm 5 m/s 757 mmHg 77%
    23:00 +22°C° 0 mm 5 m/s 757 mmHg 75%

    Depois de amanhã, 22 Março, Sexta-feira

    Tempo Temperatura Precipitação Vento Pressão Humidade
    00:00 +22°C° 0 mm 4 m/s 757 mmHg 73%
    01:00 +22°C° 0 mm 4 m/s 756 mmHg 72%
    02:00 +22°C° 0 mm 4 m/s 756 mmHg 72%
    03:00 +22°C° 0 mm 4 m/s 755 mmHg 71%
    04:00 +21°C° 0 mm 4 m/s 755 mmHg 72%
    05:00 +21°C° 0 mm 4 m/s 755 mmHg 72%
    06:00 +21°C° 0 mm 4 m/s 755 mmHg 73%
    07:00 +23°C° 0 mm 4 m/s 755 mmHg 66%
    08:00 +25°C° 0 mm 4 m/s 755 mmHg 59%
    09:00 +27°C° 0 mm 4 m/s 755 mmHg 53%
    10:00 +29°C° 0 mm 3 m/s 755 mmHg 47%
    11:00 +30°C° 0 mm 3 m/s 754 mmHg 42%
    12:00 +32°C° 0 mm 2 m/s 754 mmHg 37%
    13:00 +34°C° 0 mm 2 m/s 753 mmHg 34%
    14:00 +35°C° 0 mm 2 m/s 752 mmHg 32%
    15:00 +36°C° 0 mm 3 m/s 751 mmHg 30%
    16:00 +34°C° 0 mm 3 m/s 751 mmHg 37%
    17:00 +30°C° 0 mm 3 m/s 751 mmHg 44%
    18:00 +28°C° 0 mm 3 m/s 752 mmHg 52%
    19:00 +27°C° 0 mm 2 m/s 752 mmHg 54%
    20:00 +27°C° 0 mm 1 m/s 752 mmHg 57%
    21:00 +26°C° 0 mm 1 m/s 752 mmHg 59%
    22:00 +26°C° 0 mm 1 m/s 752 mmHg 60%
    23:00 +25°C° 0 mm 2 m/s 751 mmHg 61%

    23 Março, Sábado

    Tempo Temperatura Precipitação Vento Pressão Humidade
    00:00 +25°C° 0 mm 2 m/s 751 mmHg 62%
    01:00 +24°C° 0 mm 2 m/s 751 mmHg 65%
    02:00 +24°C° 0 mm 2 m/s 751 mmHg 68%
    03:00 +23°C° 0 mm 2 m/s 751 mmHg 72%
    04:00 +23°C° 0 mm 2 m/s 751 mmHg 73%
    05:00 +23°C° 0 mm 2 m/s 751 mmHg 74%
    06:00 +21°C° 0 mm 2 m/s 752 mmHg 76%
    07:00 +23°C° 0 mm 2 m/s 752 mmHg 71%
    08:00 +25°C° 0 mm 3 m/s 752 mmHg 66%
    09:00 +26°C° 0 mm 3 m/s 752 mmHg 61%
    10:00 +27°C° 0 mm 3 m/s 752 mmHg 57%
    11:00 +27°C° 0 mm 4 m/s 752 mmHg 53%
    12:00 +28°C° 0 mm 4 m/s 752 mmHg 49%
    13:00 +28°C° 0 mm 4 m/s 752 mmHg 50%
    14:00 +28°C° 0 mm 4 m/s 752 mmHg 50%
    15:00 +27°C° 0 mm 5 m/s 752 mmHg 50%
    16:00 +26°C° 0 mm 4 m/s 752 mmHg 56%
    17:00 +25°C° 0 mm 3 m/s 753 mmHg 62%
    18:00 +24°C° 0 mm 3 m/s 753 mmHg 68%
    19:00 +22°C° 0 mm 3 m/s 754 mmHg 72%
    20:00 +23°C° 0 mm 2 m/s 754 mmHg 75%
    21:00 +21°C° 0 mm 2 m/s 755 mmHg 79%
    22:00 +21°C° 0 mm 2 m/s 755 mmHg 81%
    23:00 +21°C° 0 mm 2 m/s 755 mmHg 82%

    24 Março, Domingo

    Tempo Temperatura Precipitação Vento Pressão Humidade
    00:00 +21°C° 0 mm 1 m/s 755 mmHg 83%
    01:00 +21°C° 0 mm 1 m/s 754 mmHg 85%
    02:00 +21°C° 0 mm 1 m/s 754 mmHg 86%
    03:00 +20°C° 0 mm 1 m/s 754 mmHg 87%
    04:00 +20°C° 0 mm 1 m/s 754 mmHg 87%
    05:00 +20°C° 0 mm 1 m/s 754 mmHg 88%
    06:00 +20°C° 0 mm 1 m/s 754 mmHg 88%
    07:00 +21°C° 0 mm 1 m/s 754 mmHg 82%
    08:00 +21°C° 0 mm 2 m/s 754 mmHg 75%
    09:00 +23°C° 0 mm 2 m/s 754 mmHg 69%
    10:00 +24°C° 0 mm 3 m/s 753 mmHg 66%
    11:00 +25°C° 0 mm 3 m/s 753 mmHg 64%
    12:00 +26°C° 0 mm 4 m/s 752 mmHg 61%
    13:00 +23°C° 0.1 mm 4 m/s 752 mmHg 67%
    14:00 +22°C° 0.1 mm 5 m/s 752 mmHg 73%
    15:00 +21°C° 0.1 mm 6 m/s 752 mmHg 79%
    16:00 +20°C° 0 mm 6 m/s 752 mmHg 74%
    17:00 +20°C° 0 mm 7 m/s 753 mmHg 69%
    18:00 +18°C° 0 mm 7 m/s 753 mmHg 65%
    19:00 +18°C° 0 mm 7 m/s 754 mmHg 66%
    20:00 +18°C° 0 mm 7 m/s 754 mmHg 67%
    21:00 +17°C° 0 mm 6 m/s 755 mmHg 68%
    22:00 +17°C° 0 mm 7 m/s 755 mmHg 68%
    23:00 +18°C° 0 mm 7 m/s 755 mmHg 68%

    25 Março, Segunda-feira

    Tempo Temperatura Precipitação Vento Pressão Humidade
    00:00 +18°C° 0 mm 7 m/s 755 mmHg 68%
    01:00 +17°C° 0 mm 7 m/s 755 mmHg 66%
    02:00 +17°C° 0 mm 7 m/s 755 mmHg 65%
    03:00 +16°C° 0 mm 7 m/s 756 mmHg 64%
    04:00 +16°C° 0 mm 6 m/s 756 mmHg 65%
    05:00 +15°C° 0 mm 6 m/s 757 mmHg 66%
    06:00 +14°C° 0 mm 5 m/s 758 mmHg 67%
    07:00 +15°C° 0 mm 5 m/s 758 mmHg 61%
    08:00 +16°C° 0 mm 5 m/s 759 mmHg 56%
    09:00 +17°C° 0 mm 5 m/s 759 mmHg 51%
    10:00 +19°C° 0 mm 5 m/s 759 mmHg 49%
    11:00 +19°C° 0 mm 5 m/s 759 mmHg 47%
    12:00 +20°C° 0 mm 5 m/s 759 mmHg 45%
    13:00 +19°C° 0 mm 5 m/s 759 mmHg 46%
    14:00 +19°C° 0 mm 5 m/s 759 mmHg 46%
    15:00 +19°C° 0 mm 5 m/s 759 mmHg 47%
    16:00 +17°C° 0 mm 5 m/s 759 mmHg 50%
    17:00 +18°C° 0 mm 4 m/s 760 mmHg 53%
    18:00 +17°C° 0 mm 4 m/s 760 mmHg 56%
    19:00 +15°C° 0 mm 4 m/s 761 mmHg 58%
    20:00 +15°C° 0 mm 4 m/s 761 mmHg 60%
    21:00 +15°C° 0 mm 4 m/s 762 mmHg 62%
    22:00 +14°C° 0 mm 3 m/s 762 mmHg 63%
    23:00 +14°C° 0 mm 3 m/s 762 mmHg 64%
    Mostrar mais